KC7FQC Weather Reports


Display with metric or nautical units.
time (UTC)temp
F
wind
direction
speed
MPH
gust
MPH
rain 1hr
in
rain 24hr
in
rain mn
in
humidity
%
barometer
mb
20200707234449 111 211 8.0 16.0 0.00 0.00 0.00 15 1004.1
20200707233933 111 220 7.0 15.0 0.00 0.00 0.00 15 1004.2
20200707233434 111 215 8.0 12.0 0.00 0.00 0.00 14 1004.3
20200707232948 111 205 6.0 15.0 0.00 0.00 0.00 14 1004.4
20200707232433 111 213 9.0 15.0 0.00 0.00 0.00 14 1004.5
20200707231933 111 269 1.0 9.0 0.00 0.00 0.00 13 1004.5
20200707231433 111 227 4.0 10.0 0.00 0.00 0.00 13 1004.6
20200707230951 111 198 7.0 13.0 0.00 0.00 0.00 13 1004.8
20200707230450 112 208 7.0 13.0 0.00 0.00 0.00 13 1004.8
20200707225950 112 221 9.0 13.0 0.00 0.00 0.00 13 1004.9
20200707225438 112 210 7.0 13.0 0.00 0.00 0.00 12 1005.0
20200707224934 113 252 8.0 11.0 0.00 0.00 0.00 11 1005.0
20200707224439 113 266 9.0 11.0 0.00 0.00 0.00 11 1005.1
20200707223941 112 202 2.0 7.0 0.00 0.00 0.00 11 1005.1
20200707223434 112 198 2.0 9.0 0.00 0.00 0.00 11 1005.2
20200707222934 113 218 3.0 10.0 0.00 0.00 0.00 12 1005.5
20200707222434 113 266 6.0 14.0 0.00 0.00 0.00 12 1005.5
20200707221936 113 192 5.0 14.0 0.00 0.00 0.00 11 1005.4
20200707221436 113 226 4.0 8.0 0.00 0.00 0.00 12 1005.7
20200707220933 112 251 2.0 13.0 0.00 0.00 0.00 13 1005.6
20200707220436 112 250 1.0 13.0 0.00 0.00 0.00 12 1005.8
20200707215933 112 252 4.0 10.0 0.00 0.00 0.00 13 1005.8
20200707215435 111 177 1.0 11.0 0.00 0.00 0.00 13 1006.1
20200707214935 112 177 1.0 11.0 0.00 0.00 0.00 13 1006.2
20200707214453 112 202 5.0 10.0 0.00 0.00 0.00 13 1006.3
20200707213938 111 233 3.0 10.0 0.00 0.00 0.00 13 1006.2
20200707213434 111 216 4.0 10.0 0.00 0.00 0.00 14 1006.3
20200707212933 111 140 4.0 10.0 0.00 0.00 0.00 13 1006.4
20200707212438 111 123 10.0 10.0 0.00 0.00 0.00 14 1006.4
20200707211933 112 170 3.0 12.0 0.00 0.00 0.00 14 1006.6
20200707211436 112 169 3.0 12.0 0.00 0.00 0.00 14 1006.7
20200707210949 113 203 9.0 10.0 0.00 0.00 0.00 14 1006.7
20200707210434 113 204 1.0 8.0 0.00 0.00 0.00 14 1006.7
20200707205949 112 208 1.0 8.0 0.00 0.00 0.00 15 1006.7
20200707205435 112 233 3.0 6.0 0.00 0.00 0.00 15 1006.9
20200707204934 111 204 2.0 6.0 0.00 0.00 0.00 17 1006.8
20200707204448 110 205 1.0 6.0 0.00 0.00 0.00 16 1006.9
20200707203936 111 223 4.0 9.0 0.00 0.00 0.00 17 1007.1
20200707203434 110 215 6.0 10.0 0.00 0.00 0.00 17 1007.0
20200707202933 110 186 4.0 10.0 0.00 0.00 0.00 17 1006.9
20200707202449 111 171 4.0 10.0 0.00 0.00 0.00 16 1007.1
20200707201937 111 207 2.0 8.0 0.00 0.00 0.00 16 1007.2
20200707201435 110 121 3.0 5.0 0.00 0.00 0.00 17 1007.2
20200707200936 109 120 3.0 10.0 0.00 0.00 0.00 18 1007.4
20200707200450 109 126 3.0 10.0 0.00 0.00 0.00 18 1007.5
20200707195934 110 138 7.0 9.0 0.00 0.00 0.00 18 1007.5
20200707195449 110 138 3.0 8.0 0.00 0.00 0.00 17 1007.8
20200707194934 110 309 5.0 5.0 0.00 0.00 0.00 18 1007.8
20200707194434 108 310 0.0 6.0 0.00 0.00 0.00 17 1007.9
20200707193934 108 310 0.0 6.0 0.00 0.00 0.00 18 1007.9
20200707193449 108 310 2.0 6.0 0.00 0.00 0.00 17 1008.1
20200707192934 107 310 1.0 8.0 0.00 0.00 0.00 17 1008.0
20200707192434 107 309 3.0 8.0 0.00 0.00 0.00 16 1008.2
20200707191948 106 309 0.0 8.0 0.00 0.00 0.00 18 1008.1
20200707191433 106 309 1.0 6.0 0.00 0.00 0.00 18 1008.2
20200707191006 106 309 1.0 6.0 0.00 0.00 0.00 17 1008.2
20200707190452 107 306 0.0 6.0 0.00 0.00 0.00 17 1008.3
20200707185936 106 306 2.0 6.0 0.00 0.00 0.00 18 1008.3
20200707185448 106 306 2.0 7.0 0.00 0.00 0.00 17 1008.4
20200707184949 106 305 3.0 7.0 0.00 0.00 0.00 16 1008.4
20200707184436 107 304 2.0 6.0 0.00 0.00 0.00 16 1008.6
20200707183934 106 304 0.0 7.0 0.00 0.00 0.00 17 1008.7
20200707183435 107 302 4.0 7.0 0.00 0.00 0.00 16 1008.9
20200707182933 107 296 2.0 7.0 0.00 0.00 0.00 17 1008.7
20200707182438 106 292 1.0 6.0 0.00 0.00 0.00 17 1008.9
20200707181936 106 288 0.0 6.0 0.00 0.00 0.00 17 1008.8
20200707181448 107 288 3.0 6.0 0.00 0.00 0.00 18 1009.0
20200707180933 106 284 1.0 7.0 0.00 0.00 0.00 18 1008.9
20200707180432 105 284 0.0 7.0 0.00 0.00 0.00 18 1009.0
20200707175934 105 276 3.0 4.0 0.00 0.00 0.00 18 1009.2
20200707175432 106 276 2.0 6.0 0.00 0.00 0.00 17 1009.4
20200707174932 106 275 4.0 6.0 0.00 0.00 0.00 17 1009.2
20200707174432 105 275 0.0 5.0 0.00 0.00 0.00 18 1009.4
20200707173949 105 275 5.0 5.0 0.00 0.00 0.00 19 1009.3
20200707173433 104 273 4.0 6.0 0.00 0.00 0.00 18 1009.5
20200707172932 104 269 1.0 6.0 0.00 0.00 0.00 19 1009.5
20200707172432 104 252 1.0 6.0 0.00 0.00 0.00 19 1009.5
20200707171948 104 252 0.0 6.0 0.00 0.00 0.00 19 1009.6
20200707171432 104 259 6.0 6.0 0.00 0.00 0.00 18 1009.6
20200707170932 104 271 0.0 5.0 0.00 0.00 0.00 18 1009.7
20200707170432 103 271 0.0 5.0 0.00 0.00 0.00 19 1009.8
20200707165947 103 269 1.0 13.0 0.00 0.00 0.00 19 1009.5
20200707165434 101 269 0.0 13.0 0.00 0.00 0.00 22 1009.6
20200707164948 101 318 5.0 9.0 0.00 0.00 0.00 21 1009.5
20200707164432 102 322 6.0 9.0 0.00 0.00 0.00 22 1009.5
20200707163932 101 275 0.0 8.0 0.00 0.00 0.00 23 1009.4
20200707163432 101 315 1.0 7.0 0.00 0.00 0.00 23 1009.4
20200707162948 101 316 1.0 7.0 0.00 0.00 0.00 22 1009.4
20200707162432 100 254 5.0 6.0 0.00 0.00 0.00 23 1009.3
20200707161932 100 250 2.0 7.0 0.00 0.00 0.00 23 1009.5
20200707161433 99 251 3.0 8.0 0.00 0.00 0.00 24 1009.5
20200707160932 98 254 2.0 9.0 0.00 0.00 0.00 24 1009.5
20200707160448 98 242 5.0 9.0 0.00 0.00 0.00 25 1009.4
20200707155932 97 239 5.0 9.0 0.00 0.00 0.00 25 1009.4
20200707155433 97 221 6.0 9.0 0.00 0.00 0.00 26 1009.7
20200707154932 96 219 6.0 11.0 0.00 0.00 0.00 26 1009.8
20200707154432 96 219 4.0 11.0 0.00 0.00 0.00 26 1009.8
20200707153933 96 248 6.0 11.0 0.00 0.00 0.00 26 1009.6
20200707153432 95 249 7.0 10.0 0.00 0.00 0.00 25 1009.7
20200707152932 95 241 4.0 11.0 0.00 0.00 0.00 23 1009.6
20200707152432 95 252 7.0 11.0 0.00 0.00 0.00 22 1009.7
20200707151932 95 235 2.0 6.0 0.00 0.00 0.00 20 1009.9
20200707151432 95 236 1.0 5.0 0.00 0.00 0.00 21 1009.9
20200707150932 94 236 1.0 5.0 0.00 0.00 0.00 20 1009.7
20200707150449 94 236 1.0 3.0 0.00 0.00 0.00 20 1009.6
20200707145932 93 236 0.0 3.0 0.00 0.00 0.00 19 1009.5
20200707145432 92 236 0.0 3.0 0.00 0.00 0.00 19 1009.6
20200707144948 91 236 3.0 3.0 0.00 0.00 0.00 21 1009.7
20200707144448 90 236 0.0 3.0 0.00 0.00 0.00 22 1009.7
20200707143932 89 236 1.0 3.0 0.00 0.00 0.00 22 1009.5
20200707143448 88 236 1.0 4.0 0.00 0.00 0.00 22 1009.3
20200707142948 88 236 2.0 5.0 0.00 0.00 0.00 23 1009.1
20200707142448 87 236 3.0 5.0 0.00 0.00 0.00 22 1009.0
20200707141933 86 239 0.0 3.0 0.00 0.00 0.00 24 1008.9
20200707141432 85 239 2.0 3.0 0.00 0.00 0.00 25 1008.9
20200707140948 85 239 0.0 4.0 0.00 0.00 0.00 26 1008.8
20200707140447 84 239 0.0 4.0 0.00 0.00 0.00 27 1008.5
20200707135949 84 239 0.0 2.0 0.00 0.00 0.00 28 1008.3
20200707135432 83 239 1.0 2.0 0.00 0.00 0.00 28 1008.6
20200707134933 82 239 0.0 2.0 0.00 0.00 0.00 29 1008.4
20200707134432 81 239 0.0 2.0 0.00 0.00 0.00 29 1008.4
20200707133948 81 239 0.0 2.0 0.00 0.00 0.00 30 1008.5
20200707133448 80 239 0.0 2.0 0.00 0.00 0.00 31 1008.5
20200707132932 79 239 0.0 0.0 0.00 0.00 0.00 31 1008.4
20200707132432 78 239 0.0 0.0 0.00 0.00 0.00 33 1008.0
20200707131948 78 239 0.0 0.0 0.00 0.00 0.00 35 1007.8
20200707131447 77 239 0.0 0.0 0.00 0.00 0.00 36 1007.7
20200707130948 77 239 0.0 0.0 0.00 0.00 0.00 36 1007.6
20200707130432 76 239 0.0 0.0 0.00 0.00 0.00 35 1007.3
20200707125934 76 239 0.0 0.0 0.00 0.00 0.00 36 1007.3
20200707125432 76 239 0.0 0.0 0.00 0.00 0.00 36 1007.4
20200707124932 76 239 0.0 0.0 0.00 0.00 0.00 36 1007.4
20200707124447 76 239 0.0 0.0 0.00 0.00 0.00 36 1007.5
20200707123932 76 239 0.0 0.0 0.00 0.00 0.00 37 1007.4
20200707123447 77 239 0.0 0.0 0.00 0.00 0.00 35 1007.3
20200707122934 77 239 0.0 0.0 0.00 0.00 0.00 35 1007.2
20200707122433 77 225 0.0 0.0 0.00 0.00 0.00 34 1007.1
20200707121932 77 226 0.0 0.0 0.00 0.00 0.00 35 1007.0
20200707121432 77 226 0.0 0.0 0.00 0.00 0.00 35 1006.9
20200707120932 77 226 0.0 0.0 0.00 0.00 0.00 33 1006.8
20200707120432 77 226 0.0 0.0 0.00 0.00 0.00 35 1006.8
20200707115932 77 226 0.0 0.0 0.00 0.00 0.00 35 1006.7
20200707115449 77 226 0.0 0.0 0.00 0.00 0.00 35 1006.8
20200707114932 77 226 0.0 0.0 0.00 0.00 0.00 35 1006.7
20200707114433 77 226 0.0 0.0 0.00 0.00 0.00 34 1006.6
20200707113932 77 226 0.0 0.0 0.00 0.00 0.00 34 1006.6
20200707113447 77 226 0.0 0.0 0.00 0.00 0.00 35 1006.6
20200707112932 78 226 0.0 0.0 0.00 0.00 0.00 34 1006.6
20200707112432 78 226 0.0 0.0 0.00 0.00 0.00 34 1006.6
20200707111932 78 226 0.0 0.0 0.00 0.00 0.00 32 1006.4
20200707111434 78 226 0.0 0.0 0.00 0.00 0.00 33 1006.4
20200707110932 79 226 0.0 0.0 0.00 0.00 0.00 33 1006.3
20200707110434 79 226 0.0 0.0 0.00 0.00 0.00 32 1006.1
20200707105936 79 226 0.0 0.0 0.00 0.00 0.00 33 1006.1
20200707105432 79 226 0.0 0.0 0.00 0.00 0.00 33 1006.1
20200707104932 79 226 0.0 0.0 0.00 0.00 0.00 32 1006.3
20200707104432 79 226 0.0 0.0 0.00 0.00 0.00 32 1006.1
20200707103935 79 226 0.0 0.0 0.00 0.00 0.00 32 1006.2
20200707103431 80 226 0.0 0.0 0.00 0.00 0.00 30 1006.1
20200707102932 80 226 0.0 0.0 0.00 0.00 0.00 31 1005.9
20200707102435 80 226 0.0 0.0 0.00 0.00 0.00 31 1005.9
20200707101948 80 226 0.0 0.0 0.00 0.00 0.00 30 1006.0
20200707101432 80 226 0.0 0.0 0.00 0.00 0.00 29 1006.1
20200707100931 80 226 0.0 0.0 0.00 0.00 0.00 30 1006.1
20200707100431 80 226 0.0 0.0 0.00 0.00 0.00 28 1006.2
20200707095932 80 226 0.0 0.0 0.00 0.00 0.00 29 1006.1
20200707095431 81 226 0.0 0.0 0.00 0.00 0.00 29 1006.2
20200707094933 81 226 0.0 0.0 0.00 0.00 0.00 29 1006.2
20200707094431 81 226 0.0 0.0 0.00 0.00 0.00 29 1006.1
20200707093932 81 226 0.0 0.0 0.00 0.00 0.00 28 1006.1
20200707093448 81 226 0.0 0.0 0.00 0.00 0.00 28 1006.1
20200707092932 81 226 0.0 0.0 0.00 0.00 0.00 28 1006.1
20200707092431 81 226 0.0 0.0 0.00 0.00 0.00 28 1006.0
20200707091932 81 226 0.0 0.0 0.00 0.00 0.00 29 1006.1
20200707091448 81 226 0.0 0.0 0.00 0.00 0.00 30 1006.1
20200707090932 81 226 0.0 0.0 0.00 0.00 0.00 28 1006.1
20200707090449 82 226 0.0 0.0 0.00 0.00 0.00 28 1006.2
20200707085947 82 226 0.0 0.0 0.00 0.00 0.00 26 1006.1
20200707085447 83 226 0.0 0.0 0.00 0.00 0.00 26 1006.3
20200707084948 83 226 0.0 0.0 0.00 0.00 0.00 27 1006.3
20200707084431 83 226 0.0 0.0 0.00 0.00 0.00 26 1006.4
20200707083932 83 226 0.0 0.0 0.00 0.00 0.00 27 1006.4
20200707083447 83 226 0.0 0.0 0.00 0.00 0.00 25 1006.4
20200707082947 84 226 0.0 0.0 0.00 0.00 0.00 25 1006.4
20200707082447 84 226 0.0 0.0 0.00 0.00 0.00 25 1006.4
20200707081933 84 226 0.0 0.0 0.00 0.00 0.00 26 1006.5
20200707081432 84 226 0.0 0.0 0.00 0.00 0.00 25 1006.5
20200707080932 85 226 0.0 0.0 0.00 0.00 0.00 25 1006.7
20200707080447 85 226 0.0 0.0 0.00 0.00 0.00 24 1006.7
20200707075931 85 226 0.0 0.0 0.00 0.00 0.00 25 1006.7
20200707075431 85 226 0.0 0.0 0.00 0.00 0.00 25 1006.7
20200707074931 85 226 0.0 0.0 0.00 0.00 0.00 24 1006.6
20200707074447 86 226 0.0 0.0 0.00 0.00 0.00 24 1006.6
20200707073932 86 226 0.0 2.0 0.00 0.00 0.00 24 1006.5
20200707073431 86 226 0.0 2.0 0.00 0.00 0.00 24 1006.6
20200707072931 86 226 1.0 2.0 0.00 0.00 0.00 24 1006.5
20200707072433 86 226 0.0 0.0 0.00 0.00 0.00 24 1006.5
20200707071932 87 226 0.0 0.0 0.00 0.00 0.00 24 1006.5
20200707071432 87 226 0.0 0.0 0.00 0.00 0.00 23 1006.4
20200707070948 87 226 0.0 0.0 0.00 0.00 0.00 23 1006.5
20200707070432 87 226 0.0 0.0 0.00 0.00 0.00 24 1006.5
20200707065934 88 226 0.0 0.0 0.00 0.00 0.00 23 1006.4
20200707065432 88 226 0.0 0.0 0.00 0.00 0.00 23 1006.3
20200707064946 88 226 0.0 0.0 0.00 0.00 0.00 22 1006.4
20200707064450 89 226 0.0 0.0 0.00 0.00 0.00 23 1006.6
20200707063931 89 226 0.0 0.0 0.00 0.00 0.00 22 1006.4
20200707063431 89 226 0.0 0.0 0.00 0.00 0.00 22 1006.4
20200707062947 90 226 0.0 0.0 0.00 0.00 0.00 22 1006.5
20200707062447 90 226 0.0 0.0 0.00 0.00 0.00 20 1006.4
20200707061947 90 226 0.0 0.0 0.00 0.00 0.00 20 1006.4
20200707061446 91 226 0.0 0.0 0.00 0.00 0.00 20 1006.5
20200707060931 91 226 0.0 0.0 0.00 0.00 0.00 20 1006.5
20200707060431 91 226 0.0 0.0 0.00 0.00 0.00 19 1006.6
20200707055931 91 226 0.0 0.0 0.00 0.00 0.00 21 1006.4
20200707055448 92 226 0.0 0.0 0.00 0.00 0.00 22 1006.3
20200707054947 92 226 0.0 0.0 0.00 0.00 0.00 21 1006.2
20200707054450 92 226 0.0 0.0 0.00 0.00 0.00 21 1006.1
20200707053931 92 226 0.0 0.0 0.00 0.00 0.00 20 1006.1
20200707053431 93 226 0.0 0.0 0.00 0.00 0.00 21 1006.2
20200707052946 93 226 0.0 0.0 0.00 0.00 0.00 21 1006.1
20200707052433 93 226 0.0 0.0 0.00 0.00 0.00 21 1006.1
20200707051932 94 226 0.0 0.0 0.00 0.00 0.00 21 1006.1
20200707051431 94 226 0.0 0.0 0.00 0.00 0.00 22 1006.0
20200707050931 95 226 0.0 0.0 0.00 0.00 0.00 20 1005.9
20200707050446 95 226 0.0 0.0 0.00 0.00 0.00 20 1005.9
20200707045947 96 226 0.0 0.0 0.00 0.00 0.00 19 1005.8
20200707045431 96 226 0.0 0.0 0.00 0.00 0.00 19 1005.6
20200707044931 97 226 0.0 0.0 0.00 0.00 0.00 18 1005.5
20200707044431 97 226 0.0 0.0 0.00 0.00 0.00 18 1005.5
20200707043950 98 226 0.0 0.0 0.00 0.00 0.00 18 1005.6
20200707043431 98 226 0.0 0.0 0.00 0.00 0.00 17 1005.5
20200707042931 98 226 0.0 0.0 0.00 0.00 0.00 17 1005.5
20200707042431 99 226 0.0 0.0 0.00 0.00 0.00 16 1005.4
20200707041934 99 226 0.0 0.0 0.00 0.00 0.00 16 1005.3
20200707041431 100 226 0.0 0.0 0.00 0.00 0.00 16 1005.3
20200707040948 100 226 0.0 0.0 0.00 0.00 0.00 15 1005.2
20200707040431 101 226 0.0 0.0 0.00 0.00 0.00 15 1005.2
20200707035946 101 226 0.0 0.0 0.00 0.00 0.00 14 1005.2
20200707035431 101 226 0.0 1.0 0.00 0.00 0.00 14 1005.0
20200707034947 102 226 0.0 2.0 0.00 0.00 0.00 14 1004.9
20200707034433 102 226 0.0 2.0 0.00 0.00 0.00 14 1004.9
20200707033931 102 226 0.0 1.0 0.00 0.00 0.00 13 1005.0
20200707033432 103 226 0.0 2.0 0.00 0.00 0.00 13 1004.9
20200707032931 103 226 0.0 2.0 0.00 0.00 0.00 13 1004.9
20200707032447 103 226 0.0 3.0 0.00 0.00 0.00 13 1004.9
20200707031931 104 226 1.0 3.0 0.00 0.00 0.00 12 1004.8
20200707031431 104 226 1.0 4.0 0.00 0.00 0.00 12 1004.9
20200707030931 104 226 2.0 4.0 0.00 0.00 0.00 12 1004.9
20200707030448 104 226 0.0 4.0 0.00 0.00 0.00 12 1004.8
20200707025931 105 226 0.0 5.0 0.00 0.00 0.00 11 1004.6
20200707025447 105 226 2.0 6.0 0.00 0.00 0.00 11 1004.4
20200707024931 105 226 5.0 8.0 0.00 0.00 0.00 11 1004.4
20200707024448 105 225 1.0 8.0 0.00 0.00 0.00 11 1004.4
20200707023934 106 226 2.0 5.0 0.00 0.00 0.00 11 1004.5
20200707023434 106 227 3.0 6.0 0.00 0.00 0.00 10 1004.5
20200707022946 106 227 1.0 8.0 0.00 0.00 0.00 10 1004.5
20200707022431 107 227 5.0 8.0 0.00 0.00 0.00 10 1004.6
20200707021931 107 234 2.0 8.0 0.00 0.00 0.00 10 1004.6
20200707021433 107 226 3.0 7.0 0.00 0.00 0.00 10 1004.6
20200707020931 107 226 5.0 9.0 0.00 0.00 0.00 10 1004.6
20200707020448 108 225 7.0 12.0 0.00 0.00 0.00 9 1004.8
20200707015946 108 233 3.0 12.0 0.00 0.00 0.00 9 1004.7
20200707015431 108 247 6.0 10.0 0.00 0.00 0.00 9 1004.3
20200707014946 108 261 3.0 11.0 0.00 0.00 0.00 9 1004.3
20200707014446 108 229 7.0 11.0 0.00 0.00 0.00 9 1004.3
20200707013947 109 234 7.0 10.0 0.00 0.00 0.00 9 1004.4
20200707013431 109 207 7.0 11.0 0.00 0.00 0.00 9 1004.4
20200707012931 109 234 4.0 11.0 0.00 0.00 0.00 9 1004.4
20200707012431 109 233 5.0 9.0 0.00 0.00 0.00 9 1004.4
20200707011946 109 218 7.0 11.0 0.00 0.00 0.00 9 1004.4
20200707011431 110 235 9.0 11.0 0.00 0.00 0.00 9 1004.4
20200707010931 110 277 7.0 10.0 0.00 0.00 0.00 9 1004.4
20200707010431 110 216 9.0 9.0 0.00 0.00 0.00 9 1004.4
20200707005931 110 222 6.0 10.0 0.00 0.00 0.00 8 1004.4
20200707005446 110 254 7.0 10.0 0.00 0.00 0.00 8 1004.3
20200707004931 110 235 9.0 10.0 0.00 0.00 0.00 9 1004.3
20200707004431 111 228 3.0 10.0 0.00 0.00 0.00 8 1004.3
20200707003947 111 234 6.0 10.0 0.00 0.00 0.00 9 1004.2
20200707003447 111 272 3.0 10.0 0.00 0.00 0.00 9 1004.4
20200707002931 111 211 6.0 11.0 0.00 0.00 0.00 9 1004.4
20200707002447 111 240 9.0 14.0 0.00 0.00 0.00 9 1004.4
20200707001931 111 254 6.0 14.0 0.00 0.00 0.00 9 1004.5
20200707001430 111 236 8.0 15.0 0.00 0.00 0.00 9 1004.7
20200707000930 111 246 8.0 15.0 0.00 0.00 0.00 9 1004.7
20200707000446 111 246 3.0 12.0 0.00 0.00 0.00 9 1004.7
20200706235946 111 256 9.0 14.0 0.00 0.00 0.00 10 1004.9
20200706235431 111 229 9.0 16.0 0.00 0.00 0.00 10 1004.9
20200706234930 111 234 4.0 16.0 0.00 0.00 0.00 10 1004.9